Location: LDNL
(36.4545°S, 141.6685°E)
Time: 23:03:14
(UTC+11:00)

Tiangong - Visible Passes

Search period start: 06 December 2021 00:00
Search period end: 16 December 2021 00:00
Orbit: 380 x 384 km, 41.5° (Epoch: 06 December)

Date Brightness Start Highest point End Pass type
(mag) Time Alt. Az. Time Alt. Az. Time Alt. Az.
12 Dec 2.9 05:17:40 10° NNW 05:20:12 22° NE 05:22:45 10° E visible
13 Dec 3.6 04:19:50 12° NE 04:19:50 12° NE 04:21:01 10° ENE visible
14 Dec 1.9 04:54:05 23° NNW 04:55:34 39° NNE 04:58:35 10° E visible
15 Dec 3.3 03:56:07 18° ENE 03:56:07 18° ENE 03:57:33 10° E visible
15 Dec 1.3 05:28:26 10° WNW 05:31:36 68° SSW 05:34:48 10° ESE visible
